Colby, WI (54421)

8:50 PM CST on February 06, 2016 (GMT -0600)
Taylor County | | Change Station
CLOSE
Current Station
Airport
Location: Medford,
Elevation: 1470 ft
Nearby Weather Stations

Elev 1470 ft 45.10 °N, 90.30 °W | Updated 15 minutes ago

Snow
Snow
29 °F
Feels Like 18 °F
N
14
Wind Variable Wind from South

Today
High -- | Low -- °F
--% Chance of Precip.
Yesterday
High -- | Low -- °F
Precip. -- in
Pressure 29.86 in
Visibility 10.0 miles
Clouds Mostly Cloudy 3000 ft
Mostly Cloudy 3700 ft
Overcast 4800 ft
Windchill 18 °F
Dew Point 24 °F
Humidity 81%
Rainfall 0.00 in
Snow Depth Not available.
7:15 AM 5:15 PM
Waning Crescent, 3% visible
METAR KMDZ 070235Z AUTO 18012KT 10SM BKN030 BKN037 OVC048 M02/M04 A2986 RMK AO2 T10161045
Pressure 29.86 in
Visibility 10.0 miles
Clouds Mostly Cloudy 3000 ft
Mostly Cloudy 3700 ft
Overcast 4800 ft
Windchill 18 °F
Dew Point 24 °F
Humidity 81%
Rainfall 0.00 in
Snow Depth Not available.
7:15 AM 5:15 PM
Waning Crescent, 3% visible
METAR KMDZ 070235Z AUTO 18012KT 10SM BKN030 BKN037 OVC048 M02/M04 A2986 RMK AO2 T10161045

10-Day Weather Forecast

Almanac

Astronomy

Feb. 06, 2016 Rise Set
Actual Time
Civil Twilight
Nautical Twilight
Astronomical Twilight
Moon
Length of Visible Light
Length of Day
Tomorrow will be .
, % of the Moon is Illuminated

Today's Extremes

State Highs State Lows

Community

WunderPhotos

Upload Photos

1,891,143 photos uploaded!

WunderBlog® & News

Nearby

Air Quality

  Air Quality AQ Index Pollutant
Not available.

Snow Depth

Station Depth Elevation

Earthquake Activity

City Distance Mag. Time & Date
Minimum magnitude displayed is 2.5.

Coastal Water Temperatures

Place Temperature

Stations

Nearby Weather Stations

Station Location Temp. Windchill Dew Point Humidity Wind Precip. Elev Updated Type
                   

Watches & Warnings

There are currently no watches in effect.